Overview Statistics Trail Chart Weather Telemetry Raw packets
 

This is the latest recevied weather packets stored in our database for station/object ED3YAB-7. If no packets are shown the sender has not sent any weather packets the latest 10 day(s).

<< 22 23 24 25 26 27 28 >>
Time Temp. Humidity Pressure Rain* Wind** Luminosity Snow
1777648800 27.78° C 27% 1026.4 hPa - - - -
1777647600 33.33° C 20% 1026.3 hPa - - - -
1777646400 35.56° C 18% 1026.4 hPa - - - -
1777645200 33.33° C 21% 1026.4 hPa - - - -
1777644000 32.78° C 23% 1026.5 hPa - - - -
1777642799 30° C 26% 1026.6 hPa - - - -
1777641599 26.67° C 32% 1026.3 hPa - - - -
1777640399 27.22° C 32% 1026.5 hPa - - - -
1777639199 26.11° C 33% 1026.2 hPa - - - -
1777637999 25.56° C 32% 1026.1 hPa - - - -
1777636800 26.11° C 31% 1026.2 hPa - - - -
1777635600 26.67° C 31% 1026.1 hPa - - - -
1777634400 25.56° C 32% 1026.3 hPa - - - -
1777633200 24.44° C 34% 1026.4 hPa - - - -
1777632000 23.89° C 35% 1026.6 hPa - - - -
1777630800 23.33° C 35% 1026.7 hPa - - - -
1777629600 22.78° C 35% 1026.5 hPa - - - -
1777628399 22.22° C 39% 1026.5 hPa - - - -
1777627199 21.11° C 42% 1026.4 hPa - - - -
1777625999 21.11° C 43% 1026.4 hPa - - - -
1777624799 21.67° C 45% 1026.5 hPa - - - -
1777623599 21.11° C 46% 1026.3 hPa - - - -
1777622399 20° C 48% 1026.2 hPa - - - -
1777621199 18.33° C 53% 1026 hPa - - - -
1777619999 17.22° C 55% 1025.9 hPa - - - -

* Rain since midnight (hover to see other rain measurements)
** Current wind speed in m/s (hover to see current wind gust speed)